Location: Charbonni�res
(45.9952°N, 2.9982°E)
Time: 14:14:48
(UTC+00:00)

ALOS - Pass Details

Date: 29 November 2020
Orbit: 682 x 686 km, 97.9° (Epoch: 27 January)

Event Time Altitude Azimuth Distance (km) Brightness Sun altitude
Rises 05:25:29 0° 3° (N) 3,065 5.5 -17.2°
Reaches altitude 10° 05:28:00 10° 351° (N) 2,144 4.6 -16.7°
Enters shadow 05:31:46 27° 298° (WNW) 1,318 3.1 -16.1°
